Regional Weather Roundup
Issued by NWS Upton, NY

Current Version | Previous Version | Text Only | Print | Product List | Glossary On
Versions: 1 2 3 4 5 6 7 8 9 10 11 12 13 14 15 16 17 18 19 20 21 22 23 24 25 26
000 ASUS41 KOKX 171305 RWROKX Regional Weather Roundup National Weather Service New York NY 800 AM EST SAT FEB 17 2018 Note: "FAIR" indicates few or no clouds below 12,000 feet with no significant weather and/or obstructions to visibility. NYZ071-072-176-178-NJZ106-104-171400- New York City Metro Area CITY SKY/WX TMP DP RH WIND PRES REMARKS Central Park FAIR 29 15 56 CALM 30.44R Bronx Bot Gard N/A 32 16 51 NW3 30.43R Bronx Lehman C N/A 30 16 55 NW5 N/A WCI 25 LaGuardia Arpt PTSUNNY 32 16 51 NW6 30.42R WCI 26 Queens College N/A 32 18 55 N3 N/A Kennedy Intl PTSUNNY 31 17 56 N8 30.43R WCI 23 Breezy Point N/A N/A N/A N/A N6 N/A Brooklyn Coll N/A 32 16 51 N6 N/A WCI 26 Staten Island N/A 30 16 55 N6 N/A WCI 24 Newark/Liberty PTSUNNY 30 15 53 N9 30.42R WCI 22 Teterboro FAIR 30 15 53 VRB6 30.42R WCI 24 $$ NYZ177-179-078>081-171400- Long Island New York CITY SKY/WX TMP DP RH WIND PRES REMARKS Jones Beach N/A N/A N/A N/A N7 N/A Wantagh N/A 32 19 59 N5 N/A WCI 27 Hempstead N/A 32 21 64 N2 30.45R Matinecock Pt N/A 34 N/A N/A N8 N/A WCI 27 Farmingdale FAIR 31 19 61 NE6 30.42R WCI 25 MacArthur/ISP PTSUNNY 32 19 58 N5 30.41R WCI 27 Shirley FAIR 32 22 66 CALM 30.42R Mt Sinai Harb N/A N/A N/A N/A N7 N/A Westhampton FAIR 33 17 51 N8 30.43R WCI 26 East Hampton FAIR 32 15 49 N6 30.41R WCI 26 Southold N/A 32 18 55 N7 N/A WCI 26 Montauk N/A 34 12 40 N9 30.42R WCI 27 $$ NYZ052-065-067-171400- Hudson Valley CITY SKY/WX TMP DP RH WIND PRES REMARKS White Plains FAIR 28 16 60 NW5 30.39R WCI 23 Larchmont Harb N/A N/A N/A N/A NW7 N/A Croton On Huds N/A N/A N/A N/A CALM N/A Somers N/A 27 19 74 W2 N/A Brewster N/A 27 18 69 S1 N/A Newburgh MOSUNNY 21 19 93 CALM 30.40R Montgomery FAIR 24 17 74 S3 30.39R Otisville N/A 25 16 68 S2 N/A Warwick N/A 25 18 74 SW1 N/A Suffern N/A 25 16 68 S1 N/A Poughkeepsie FAIR 25 19 78 CALM 30.40R Albany FAIR 26 14 60 CALM 30.41S $$ NJZ001-105-106-008-010-013-015-019>022-104-171400- New Jersey CITY SKY/WX TMP DP RH WIND PRES REMARKS Newark/Liberty PTSUNNY 30 15 53 N9 30.42R WCI 22 Teterboro FAIR 30 15 53 VRB6 30.42R WCI 24 Caldwell FAIR 27 16 63 CALM 30.43R Somerville FAIR 27 16 63 N5 30.40R WCI 22 Linden FAIR 30 15 53 CALM 30.43R Perth Amboy N/A N/A N/A N/A N6 N/A Sussex FAIR 22 16 78 CALM 30.40R Andover N/A 22 16 78 CALM 30.40R Trenton FAIR 28 15 58 N5 30.39S WCI 23 Millville FAIR 31 15 52 NE9 30.40R WCI 23 Atlantic City FAIR 32 19 58 N6 30.41R WCI 26 Wrightstown FAIR 29 17 61 N8 30.37 WCI 21 Toms River FAIR 28 18 66 N6 30.41R WCI 22 Belmar FAIR 29 18 63 N7 30.41R WCI 22 $$ PAZ047>061-062-071-171400- Eastern Pennsylvania CITY SKY/WX TMP DP RH WIND PRES REMARKS Philadelphia PTSUNNY 30 15 53 NE9 30.41R WCI 22 Allentown FAIR 27 17 66 NE6 30.39S WCI 20 Scranton FAIR 22 15 75 E3 30.34R $$ CTZ002-004>006-009-010-012-RIZ004-006-007-MAZ004-011-015-171400- Southern New England In CT CITY SKY/WX TMP DP RH WIND PRES REMARKS Bradley Intl PTSUNNY 27 14 58 N7 30.40R WCI 19 Hartford FAIR 29 13 51 NE3 30.42R Danbury FAIR 25 18 74 CALM 30.40R Wtrbury/Oxford FAIR 26 16 65 N7 30.38R WCI 18 Norwalk Harbor N/A N/A N/A N/A NW3 N/A Bridgeport FAIR 31 16 54 N9 30.42R WCI 23 Meriden FAIR 29 15 56 NW8 30.41R WCI 21 New Haven FAIR 31 19 61 N7 30.41R WCI 24 Chester FAIR 30 12 47 VRB6 30.38R WCI 24 Groton FAIR 31 9 39 N9 30.40R WCI 23 Willimantic FAIR 28 15 58 N3 30.40R In RI CITY SKY/WX TMP DP RH WIND PRES REMARKS Providence FAIR 30 18 60 N7 30.41R WCI 23 Block Island FAIR 32 16 51 NE12 30.41R WCI 23 Westerly FAIR 32 9 38 N5 30.41R WCI 27 In MA CITY SKY/WX TMP DP RH WIND PRES REMARKS Boston FAIR 28 11 48 NW16 30.40R WCI 16 Worcester FAIR 23 10 57 NW7 30.34R WCI 15 Westfield FAIR 27 15 61 NE3 30.40R Provincetown FAIR 30 16 56 N12 30.42R WCI 20 Nantucket FAIR 33 20 58 N13 30.39R WCI 24 $$ ANZ330-335-338-340-345-350-353-355-171400- Coastal Marine Observations STATION/POSITION TIME SKY/WX TEMP WIND PRES VSBY WAVE AIR SEA DIR/SP/G HT/PER (UTC) (F) (DEG/KT/KT) (MB) (MI) (FT/S) NY Harb Entrance 1250 33 39 10/ 12/ 16 1029.4 2/ 8 20 S Fire Island 1250 34 42 20/ 12/ 14 1029.5 3/ 4 15 E Barnegat Li 1230 41 N/A 4/ 5 Hudson Canyon 1250 39 46 40/ 16/ 19 1028.2 5/ 6 Kings Point 1224 29 36 10/ 7/ 9 1030.7 Execution Rocks NOT AVBL Western LI Sound NOT AVBL Central LI Sound 1245 32 10/ 10/ 14 N/A 1 Robbins Reef 1224 29 330/ 8/ 10 1030.4 $$ >>>>>>>>>>>>>>>>>>>>>>>>>>>> KEY <<<<<<<<<<<<<<<<<<<<<<<<<<< > < > SKY/WX - Sky Condition/Present Weather < > TMP - Temperature in Fahrenheit < > DP - Dew Point in Fahrenheit < > RH - Relative Humidity in Percent < > WIND - Direction (from) and Speed in MPH < > PRES - Mean Sea Level Pressure (inches of Hg) < > WCI - Wind Chill Index < > VSB - Visibility in Miles < > HX - Heat Index < > TC - Temperature in Celsius < > VRB - Varibale Wind Direction < > < >>>>>>>>>>>>>>>>>>>>>>>>>>>> KEY <<<<<<<<<<<<<<<<<<<<<<<<<<<

USA.gov is the U.S. government's official web portal to all federal, state and local government web resources and services.